If you wish to contribute or participate in the discussions about articles you are invited to join SKYbrary as a registered user

 Actions

Akanu Ibiam International Airport

From SKYbrary Wiki

DNEN
Airport
ICAO: DNEN – IATA: ENU
Summary
Name Akanu Ibiam International Airport
Region Africa
Territory Nigeria NG.gif
Location Emene, Enugu State
Serving Enugu
Elevation 142.037 m <br />466 ft <br />466 ft142.037 m <br />
Coordinates 6° 28' 31.66" N, 7° 33' 42.88" E
Runways
Designator Length Width Surface ROPS
8/26 2402 m7,880.577 ft <br /> 45 m147.638 ft <br /> ASP /


METAR
Observation DNEN 211400Z 33007KT 9999 TS BKN011 FEW020CB 28/22 Q1011 NOSIG
Station Enugu
Date/Time 21 June 2021 14:00:00
Wind direction 330°
Wind speed 07 kts
Lowest cloud amount broken clouds
Temperature 28°C
Dew point 22°C
Humidity 69%
QNH 1011 hPa
Weather condition thunderstorm

Akanu Ibiam International Airport, also known as Enugu Airport, is an airport serving Enugu, a city in the Enugu State of Nigeria.

Climatology

Tropical Savanna climate (Köppen climate classification Aw)

Maps

Terrain

Loading map...

Airport Layout

Loading map...


Accidents & Serious Incidents at or in vicinity of DNEN

None on SKYbrary